Mitchell, SD

12:08 AM CDT on August 26, 2016 (GMT -0500)
Mitchell Municipal

Weather History for KMHE - February, 2014

Change the Weather History Date:

Monday, February 24, 2014

  Actual Average Record
Temperature  
Mean Temperature 9 °F 26 °F  
Max Temperature 20 °F 36 °F 64 °F (1995)
Min Temperature -2 °F 17 °F -24 °F (1993)
Degree Days  
Heating Degree Days 56 39  
Month to date heating degree days 1152 967  
Since 1 July heating degree days 5715 5334  
Cooling Degree Days 0 0  
Month to date cooling degree days 0 0  
Year to date cooling degree days 0 0  
Moisture  
Dew Point 9 °F    
Average Humidity 73    
Maximum Humidity 92    
Minimum Humidity 54    
Precipitation  
Precipitation 0.13 in 0.01 in 0.47 in (2001)
Month to date precipitation 0.33 0.28  
Year to date precipitation 0.50 0.50  
Snow  
Snow 2.80 in - 10.00 in (1942)
Month to date snowfall 6.0  
Since 1 July snowfall 22.2  
Snow Depth 0.00 in    
Sea Level Pressure  
Sea Level Pressure 30.35 in    
Wind  
Wind Speed 10 mph (NE)    
Max Wind Speed 25 mph    
Max Gust Speed 32 mph    
Visibility 4 miles    
Events Fog , Snow    
T = Trace of Precipitation, MM = Missing Value Source: NWS Daily Summary

Daily Weather History Graph

Daily Weather History Graph

Search for Another Location

Airport or City:

Trip Planner

Search our weather history database for the weather conditions in past years. The results will help you decide how hot, cold, wet, or windy it might be!

Date:

Astronomy

Feb. 24, 2014 Rise Set
Actual Time 7:16 AM CST 6:14 PM CST
Civil Twilight 6:47 AM CST 6:43 PM CST
Nautical Twilight 6:14 AM CST 7:16 PM CST
Astronomical Twilight 5:41 AM CST 7:50 PM CST
Moon 3:23 AM CST (2/24) 1:10 PM CST (2/24)
Length of Visible Light 11h 55m
Length of Day
10h 57m
Waning Crescent, 28% of the Moon is Illuminated
Feb 24
Waning Crescent
Mar 1
New
Mar 8
First Quarter
Mar 16
Full
Mar 23
Last Quarter

Hourly Weather History & Observations

Time (CST) Temp. Windchill Dew Point Humidity Pressure Visibility Wind Dir Wind Speed Gust Speed Precip Events Conditions
12:53 AM 10.9 °F 1.4 °F 5.0 °F 77% 30.44 in 10.0 mi North 5.8 mph - N/A   Clear
1:53 AM 12.9 °F 5.2 °F 6.1 °F 74% 30.43 in 10.0 mi North 4.6 mph - N/A   Clear
2:53 AM 12.9 °F -0.2 °F 5.0 °F 71% 30.42 in 10.0 mi NNE 10.4 mph - N/A   Scattered Clouds
3:53 AM 12.0 °F 4.1 °F 5.0 °F 73% 30.40 in 10.0 mi North 4.6 mph - N/A   Overcast
4:53 AM 12.0 °F 1.5 °F 3.9 °F 70% 30.40 in 10.0 mi NE 6.9 mph - N/A   Overcast
5:53 AM 12.0 °F 2.7 °F 3.9 °F 70% 30.41 in 10.0 mi North 5.8 mph - N/A   Overcast
6:53 AM 10.9 °F 0.2 °F 3.9 °F 73% 30.41 in 10.0 mi NE 6.9 mph - N/A   Overcast
7:53 AM 10.9 °F 0.2 °F 3.0 °F 70% 30.41 in 10.0 mi ENE 6.9 mph - N/A   Overcast
8:53 AM 12.0 °F 2.7 °F 3.0 °F 67% 30.40 in 10.0 mi East 5.8 mph - N/A   Overcast
9:53 AM 14.0 °F 2.0 °F 3.0 °F 62% 30.38 in 10.0 mi SE 9.2 mph - N/A   Overcast
10:53 AM 17.1 °F 6.6 °F 3.9 °F 56% 30.38 in 9.0 mi ESE 8.1 mph - N/A   Overcast
11:53 AM 18.0 °F 9.8 °F 9.0 °F 68% 30.37 in 2.5 mi ESE 5.8 mph - 0.00 in Snow Light Snow
12:03 PM 18.0 °F 8.7 °F 10.0 °F 71% 30.30 in 3.0 mi SE 6.9 mph - 0.00 in Snow Light Snow
12:15 PM 18.0 °F 9.8 °F 10.0 °F 71% 30.29 in 2.0 mi ESE 5.8 mph - 0.00 in Snow Light Snow
12:22 PM 18.0 °F 9.8 °F 10.9 °F 74% 30.29 in 1.5 mi ESE 5.8 mph - 0.00 in Snow Light Snow
12:53 PM 19.0 °F 11.1 °F 12.9 °F 77% 30.35 in 2.0 mi SE 5.8 mph - 0.00 in Snow Light Snow
1:13 PM 19.0 °F 9.0 °F 12.9 °F 77% 30.27 in 1.0 mi ESE 8.1 mph - 0.00 in Snow Light Snow
1:40 PM 19.0 °F 7.5 °F 14.0 °F 81% 30.25 in 2.5 mi SE 10.4 mph - 0.00 in Snow Light Snow
1:51 PM 19.4 °F 8.6 °F 15.8 °F 86% 30.24 in 1.0 mi ESE 9.2 mph - 0.00 in Snow Light Snow
1:53 PM 19.0 °F 8.2 °F 15.1 °F 85% 30.32 in 0.8 mi ESE 9.2 mph - 0.00 in Snow Light Snow
2:05 PM 19.9 °F 9.3 °F 16.0 °F 85% 30.23 in 1.0 mi ESE 9.2 mph - 0.00 in Snow Light Snow
2:35 PM 19.9 °F 9.3 °F 16.0 °F 85% 30.24 in 0.8 mi East 9.2 mph - 0.00 in Snow Light Snow
2:53 PM 19.0 °F 8.2 °F 16.0 °F 88% 30.31 in 0.8 mi East 9.2 mph - 0.01 in Snow Light Snow
3:15 PM 19.0 °F 8.2 °F 15.1 °F 85% 30.24 in 0.8 mi East 9.2 mph - 0.00 in Snow Light Snow
3:25 PM 19.9 °F 9.3 °F 16.0 °F 85% 30.23 in 0.8 mi East 9.2 mph - 0.00 in Snow Light Snow
3:36 PM 19.9 °F 11.1 °F 16.0 °F 85% 30.25 in 1.0 mi East 6.9 mph - 0.00 in Snow Light Snow
3:53 PM 19.9 °F 13.4 °F 16.0 °F 85% 30.32 in 1.0 mi East 4.6 mph - 0.00 in Snow Light Snow
4:01 PM 19.0 °F 8.2 °F 15.1 °F 85% 30.25 in 0.8 mi ESE 9.2 mph - 0.01 in Snow Light Snow
4:05 PM 19.0 °F 10.0 °F 15.1 °F 85% 30.24 in 1.0 mi East 6.9 mph - 0.01 in Snow Light Snow
4:12 PM 19.0 °F 10.0 °F 16.0 °F 88% 30.25 in 1.0 mi East 6.9 mph - 0.01 in Snow Light Snow
4:37 PM 19.0 °F 9.0 °F 15.1 °F 85% 30.27 in 0.8 mi East 8.1 mph - 0.01 in Snow Light Snow
4:53 PM 18.0 °F 7.7 °F 15.1 °F 88% 30.34 in 1.0 mi ENE 8.1 mph - 0.01 in Snow Light Snow
5:10 PM 19.0 °F 10.0 °F 15.1 °F 85% 30.27 in 0.8 mi NNE 6.9 mph - 0.01 in Snow Light Snow
5:34 PM 18.0 °F 6.1 °F 15.1 °F 88% 30.28 in 0.5 mi NNE 10.4 mph - 0.01 in Fog , Snow Snow
5:41 PM 18.0 °F 5.4 °F 15.1 °F 88% 30.28 in 0.8 mi NNE 11.5 mph - 0.01 in Snow Light Snow
5:49 PM 17.6 °F 5.0 °F 14.0 °F 86% 30.29 in 1.2 mi North 11.5 mph - 0.01 in Snow Light Snow
5:53 PM 18.0 °F 6.1 °F 14.0 °F 84% 30.38 in 1.2 mi North 10.4 mph - 0.01 in Snow Light Snow
6:11 PM 12.9 °F -5.7 °F 10.0 °F 88% 30.32 in 1.0 mi NNW 21.9 mph - 0.00 in Snow Light Snow
6:39 PM 10.9 °F -9.6 °F 7.0 °F 84% 30.34 in 1.8 mi North 25.3 mph 29.9 mph 0.00 in Snow Light Snow
6:53 PM 10.0 °F -8.1 °F 6.1 °F 84% 30.44 in 2.5 mi North 18.4 mph 32.2 mph 0.00 in Snow Light Snow
7:12 PM 9.0 °F -10.5 °F 6.1 °F 88% 30.36 in 2.0 mi North 20.7 mph - 0.00 in Snow Light Snow
7:31 PM 9.0 °F -9.5 °F 5.0 °F 84% 30.38 in 4.0 mi North 18.4 mph - 0.00 in Snow Light Snow
7:53 PM 9.0 °F -7.9 °F 5.0 °F 84% 30.48 in 8.0 mi North 15.0 mph - 0.00 in Snow Light Snow
8:53 PM 8.1 °F -9.6 °F 3.0 °F 80% 30.51 in 10.0 mi North 16.1 mph - 0.00 in   Overcast
9:53 PM 3.9 °F -13.0 °F -0.0 °F 84% 30.54 in 10.0 mi NNW 12.7 mph - N/A   Scattered Clouds
10:19 PM 3.9 °F -10.4 °F -0.0 °F 84% 30.45 in 10.0 mi NW 9.2 mph - N/A   Mostly Cloudy
10:53 PM 5.0 °F -16.7 °F 1.0 °F 84% 30.55 in 10.0 mi NNW 23.0 mph - 0.00 in   Overcast
11:10 PM 3.9 °F -15.0 °F -0.9 °F 80% 30.46 in 10.0 mi NNW 16.1 mph - N/A   Mostly Cloudy
11:53 PM -0.9 °F -16.4 °F -5.1 °F 83% 30.55 in 10.0 mi NNW 9.2 mph - N/A   Clear